CW4086 Weather Reports


time (UTC)temp
F
wind
direction
speed
knots
gust
knots
rain 1hr
in
rain 24hr
in
rain mn
in
humidity
%
barometer
mb
20260901225606 88 241 2.6 7.0 0.00 0.00 0.00 22 1013.1
20260901225103 88 256 2.6 6.1 0.00 0.00 0.00 23 1013.1
20260901224603 89 263 3.5 6.1 0.00 0.00 0.00 22 1013.2
20260901224104 89 180 1.7 6.1 0.00 0.00 0.00 21 1013.2
20260901223604 88 265 4.3 6.1 0.00 0.00 0.00 22 1013.3
20260901223104 88 294 2.6 7.0 0.00 0.00 0.00 22 1013.3
20260901222604 88 266 1.7 7.0 0.00 0.00 0.00 23 1013.4
20260901222104 88 262 2.6 8.7 0.00 0.00 0.00 22 1013.5
20260901221604 88 262 3.5 8.7 0.00 0.00 0.00 22 1013.5
20260901221104 88 274 1.7 6.1 0.00 0.00 0.00 23 1013.5
20260901220604 88 251 1.7 7.0 0.00 0.00 0.00 21 1013.6
20260901220105 88 264 4.3 7.0 0.00 0.00 0.00 22 1013.6
20260901215607 88 276 2.6 7.0 0.00 0.00 0.00 20 1013.6
20260901215104 88 262 4.3 7.0 0.00 0.00 0.00 20 1013.6
20260901214604 88 266 2.6 5.2 0.00 0.00 0.00 21 1013.6
20260901214103 88 261 2.6 6.1 0.00 0.00 0.00 20 1013.7
20260901213103 88 276 2.6 6.1 0.00 0.00 0.00 20 1013.8
20260901212604 88 274 1.7 6.1 0.00 0.00 0.00 20 1014.0
20260901212104 88 264 1.7 4.3 0.00 0.00 0.00 19 1013.9
20260901211603 88 169 1.7 4.3 0.00 0.00 0.00 19 1014.0
20260901211104 88 264 1.7 5.2 0.00 0.00 0.00 19 1014.0
20260901210605 87 255 1.7 5.2 0.00 0.00 0.00 18 1014.2
20260901210104 88 271 1.7 5.2 0.00 0.00 0.00 18 1014.2
20260901205608 87 271 1.7 2.6 0.00 0.00 0.00 17 1014.2
20260901205104 87 298 1.7 2.6 0.00 0.00 0.00 19 1014.2
20260901204604 86 248 0.9 4.3 0.00 0.00 0.00 18 1014.2
20260901204104 86 264 1.7 6.1 0.00 0.00 0.00 18 1014.3
20260901203604 87 255 2.6 6.1 0.00 0.00 0.00 17 1014.3
20260901203103 87 273 1.7 5.2 0.00 0.00 0.00 17 1014.3
20260901202603 86 280 1.7 5.2 0.00 0.00 0.00 17 1014.3
20260901202104 85 271 0.9 5.2 0.00 0.00 0.00 17 1014.4
20260901201604 86 271 2.6 5.2 0.00 0.00 0.00 17 1014.6
20260901201105 86 271 1.7 5.2 0.00 0.00 0.00 18 1014.6
20260901200604 86 266 2.6 5.2 0.00 0.00 0.00 18 1014.7
20260901200104 86 248 1.7 4.3 0.00 0.00 0.00 18 1014.8
20260901195604 86 256 1.7 4.3 0.00 0.00 0.00 18 1014.8
20260901195106 85 346 1.7 4.3 0.00 0.00 0.00 18 1014.8
20260901194603 85 276 1.7 4.3 0.00 0.00 0.00 19 1014.8
20260901194104 85 257 1.7 4.3 0.00 0.00 0.00 20 1014.8
20260901193604 85 270 1.7 4.3 0.00 0.00 0.00 19 1014.8
20260901193104 84 263 1.7 4.3 0.00 0.00 0.00 19 1014.9
20260901192604 84 274 2.6 4.3 0.00 0.00 0.00 19 1015.0
20260901191604 84 279 1.7 4.3 0.00 0.00 0.00 20 1015.1
20260901191104 85 283 2.6 2.6 0.00 0.00 0.00 21 1015.1
20260901190607 85 319 1.7 2.6 0.00 0.00 0.00 21 1015.2
20260901190104 85 296 1.7 2.6 0.00 0.00 0.00 19 1015.3
20260901185606 84 9 1.7 2.6 0.00 0.00 0.00 20 1015.3
20260901185105 84 215 1.7 2.6 0.00 0.00 0.00 19 1015.3
20260901184604 84 262 1.7 2.6 0.00 0.00 0.00 20 1015.3
20260901184104 83 268 1.7 2.6 0.00 0.00 0.00 21 1015.4
20260901183604 83 312 0.9 2.6 0.00 0.00 0.00 21 1015.3
20260901182603 82 270 0.9 2.6 0.00 0.00 0.00 23 1015.4
20260901182106 81 269 0.9 2.6 0.00 0.00 0.00 22 1015.4
20260901181604 81 264 1.7 2.6 0.00 0.00 0.00 24 1015.4
20260901181104 81 262 0.9 2.6 0.00 0.00 0.00 23 1015.4
20260901180604 81 257 1.7 2.6 0.00 0.00 0.00 23 1015.3
20260901180105 80 297 1.7 2.6 0.00 0.00 0.00 25 1015.3
20260901175609 80 291 1.7 2.6 0.00 0.00 0.00 25 1015.4
20260901175104 79 254 0.9 2.6 0.00 0.00 0.00 25 1015.4
20260901174604 79 285 0.9 2.6 0.00 0.00 0.00 26 1015.4
20260901174104 78 276 0.9 2.6 0.00 0.00 0.00 27 1015.3
20260901173603 78 312 1.7 2.6 0.00 0.00 0.00 27 1015.3
20260901173104 77 270 0.9 2.6 0.00 0.00 0.00 27 1015.3
20260901172603 77 291 0.9 2.6 0.00 0.00 0.00 27 1015.3
20260901172104 77 271 1.7 2.6 0.00 0.00 0.00 28 1015.3
20260901171604 77 285 0.9 2.6 0.00 0.00 0.00 29 1015.3
20260901171104 76 310 0.9 2.6 0.00 0.00 0.00 29 1015.3
20260901170603 76 255 0.9 2.6 0.00 0.00 0.00 29 1015.3
20260901170104 76 311 0.9 2.6 0.00 0.00 0.00 28 1015.3
20260901165607 75 287 0.9 2.6 0.00 0.00 0.00 29 1015.3
20260901165103 75 305 1.7 2.6 0.00 0.00 0.00 28 1015.3
20260901164604 75 279 0.9 2.6 0.00 0.00 0.00 29 1015.3
20260901163604 74 302 0.9 2.6 0.00 0.00 0.00 28 1015.3
20260901163105 73 274 0.9 2.6 0.00 0.00 0.00 28 1015.2
20260901162604 73 276 0.9 2.6 0.00 0.00 0.00 29 1015.3
20260901162104 72 263 0.9 2.6 0.00 0.00 0.00 30 1015.1
20260901161604 72 291 0.9 2.6 0.00 0.00 0.00 31 1014.9
20260901161104 72 194 0.9 4.3 0.00 0.00 0.00 34 1014.9
20260901160604 71 132 0.9 4.3 0.00 0.00 0.00 35 1014.9
20260901155607 71 88 0.9 2.6 0.00 0.00 0.00 33 1014.8
20260901155104 71 88 0.9 2.6 0.00 0.00 0.00 37 1014.8
20260901154604 70 88 0.9 2.6 0.00 0.00 0.00 35 1014.8
20260901154103 70 88 0.9 2.6 0.00 0.00 0.00 32 1014.8
20260901153103 70 92 0.0 0.9 0.00 0.00 0.00 32 1014.8
20260901152604 70 92 0.0 1.7 0.00 0.00 0.00 34 1014.8
20260901152104 70 92 0.0 1.7 0.00 0.00 0.00 33 1014.8
20260901151603 70 92 0.0 1.7 0.00 0.00 0.00 34 1014.8
20260901151104 70 92 0.0 0.9 0.00 0.00 0.00 32 1014.7
20260901150604 69 92 0.0 0.0 0.00 0.00 0.00 32 1014.7
20260901145607 67 92 0.0 0.9 0.00 0.00 0.00 34 1014.7
20260901145104 66 92 0.0 0.0 0.00 0.00 0.00 34 1014.7
20260901144604 65 92 0.0 0.0 0.00 0.00 0.00 35 1014.7
20260901144104 64 92 0.0 0.0 0.00 0.00 0.00 37 1014.7
20260901143604 64 92 0.0 0.0 0.00 0.00 0.00 37 1014.7
20260901143104 64 92 0.0 0.0 0.00 0.00 0.00 38 1014.7
20260901142604 64 92 0.0 0.0 0.00 0.00 0.00 38 1014.6
20260901142103 64 92 0.0 0.9 0.00 0.00 0.00 36 1014.5
20260901141604 63 92 0.0 0.9 0.00 0.00 0.00 37 1014.4
20260901141103 63 92 0.0 0.9 0.00 0.00 0.00 37 1014.3
20260901140604 62 92 0.9 1.7 0.00 0.00 0.00 39 1014.3
20260901140105 62 92 0.9 1.7 0.00 0.00 0.00 39 1014.2
20260901135608 62 92 0.0 1.7 0.00 0.00 0.00 37 1014.2
20260901135104 63 92 0.9 1.7 0.00 0.00 0.00 38 1014.2
20260901134604 62 92 0.0 1.7 0.00 0.00 0.00 34 1014.2
20260901134105 62 92 0.9 1.7 0.00 0.00 0.00 33 1014.1
20260901133105 62 92 0.0 1.7 0.00 0.00 0.00 34 1013.8
20260901132604 63 92 0.9 1.7 0.00 0.00 0.00 33 1013.8
20260901132104 63 92 0.9 1.7 0.00 0.00 0.00 31 1013.7
20260901131604 63 92 0.9 1.7 0.00 0.00 0.00 32 1013.8
20260901131103 63 92 0.9 1.7 0.00 0.00 0.00 33 1013.8
20260901130605 63 92 1.7 1.7 0.00 0.00 0.00 33 1013.7
20260901130105 63 92 0.9 1.7 0.00 0.00 0.00 35 1013.7
20260901125606 62 92 0.0 1.7 0.00 0.00 0.00 37 1013.7
20260901124604 62 92 0.9 1.7 0.00 0.00 0.00 36 1013.7
20260901124104 62 92 0.9 1.7 0.00 0.00 0.00 35 1013.7
20260901123604 63 92 0.9 1.7 0.00 0.00 0.00 35 1013.7
20260901123104 63 92 0.9 1.7 0.00 0.00 0.00 35 1013.7
20260901122604 63 92 0.9 1.7 0.00 0.00 0.00 36 1013.7
20260901122104 63 92 0.9 1.7 0.00 0.00 0.00 36 1013.8
20260901121604 63 92 0.9 1.7 0.00 0.00 0.00 35 1013.7
20260901121104 63 92 0.9 1.7 0.00 0.00 0.00 35 1013.7
20260901120604 63 92 0.9 1.7 0.00 0.00 0.00 35 1013.7
20260901115104 63 92 0.0 1.7 0.00 0.00 0.00 35 1013.7
20260901114104 63 92 0.9 1.7 0.00 0.00 0.00 34 1013.8
20260901113604 63 92 0.0 0.9 0.00 0.00 0.00 34 1013.8
20260901113104 64 92 0.0 0.9 0.00 0.00 0.00 34 1013.8
20260901112605 64 92 0.0 1.7 0.00 0.00 0.00 34 1013.9
20260901112104 64 92 0.9 1.7 0.00 0.00 0.00 34 1013.9
20260901111604 64 92 0.9 1.7 0.00 0.00 0.00 34 1014.0
20260901111104 64 92 0.9 1.7 0.00 0.00 0.00 34 1014.1
20260901110104 64 92 0.0 1.7 0.00 0.00 0.00 33 1014.1
20260901105607 64 92 0.9 1.7 0.00 0.00 0.00 33 1014.1
20260901105104 65 92 0.9 1.7 0.00 0.00 0.00 33 1014.1
20260901104103 65 92 0.9 1.7 0.00 0.00 0.00 34 1014.1
20260901103104 65 92 0.9 1.7 0.00 0.00 0.00 34 1014.0
20260901102604 65 92 0.9 1.7 0.00 0.00 0.00 33 1014.0
20260901101608 65 92 0.9 1.7 0.00 0.00 0.00 33 1014.0
20260901100604 65 92 0.9 1.7 0.00 0.00 0.00 33 1014.0
20260901100105 65 92 0.9 1.7 0.00 0.00 0.00 33 1014.0
20260901095604 65 92 0.9 1.7 0.00 0.00 0.00 33 1014.0
20260901095103 65 92 0.9 1.7 0.00 0.00 0.00 33 1013.9
20260901093604 65 92 0.9 1.7 0.00 0.00 0.00 36 1014.0
20260901093104 65 92 0.9 1.7 0.00 0.00 0.00 36 1013.9
20260901092604 65 92 0.9 1.7 0.00 0.00 0.00 36 1013.9
20260901092104 64 92 0.9 1.7 0.00 0.00 0.00 36 1014.0
20260901091604 64 92 0.9 1.7 0.00 0.00 0.00 36 1014.0
20260901091104 64 92 0.9 1.7 0.00 0.00 0.00 36 1014.0
20260901090604 64 92 0.9 1.7 0.00 0.00 0.00 36 1013.9
20260901090104 65 92 0.0 1.7 0.00 0.00 0.00 35 1013.9
20260901085104 65 92 0.9 1.7 0.00 0.00 0.00 34 1014.1
20260901084604 66 92 0.0 0.9 0.00 0.00 0.00 33 1014.1
20260901084104 66 92 0.0 1.7 0.00 0.00 0.00 33 1014.2
20260901083106 66 92 0.9 1.7 0.00 0.00 0.00 34 1014.2
20260901082603 66 92 0.9 1.7 0.00 0.00 0.00 36 1014.2
20260901082103 66 92 0.0 0.9 0.00 0.00 0.00 37 1014.2
20260901081605 66 92 0.0 1.7 0.00 0.00 0.00 37 1014.3
20260901081104 66 92 0.0 1.7 0.00 0.00 0.00 37 1014.3
20260901080604 66 92 0.9 1.7 0.00 0.00 0.00 36 1014.5
20260901080104 66 92 0.0 1.7 0.00 0.00 0.00 36 1014.5
20260901075604 66 92 0.0 1.7 0.00 0.00 0.00 36 1014.6
20260901075104 66 92 0.9 1.7 0.00 0.00 0.00 36 1014.5
20260901074604 67 92 0.0 0.9 0.00 0.00 0.00 36 1014.5
20260901074104 67 92 0.0 0.9 0.00 0.00 0.00 36 1014.4
20260901073604 67 92 0.0 0.9 0.00 0.00 0.00 35 1014.3
20260901073104 68 92 0.0 0.9 0.00 0.00 0.00 35 1014.3
20260901072604 68 92 0.0 0.9 0.00 0.00 0.00 35 1014.1
20260901072104 67 92 0.9 0.9 0.00 0.00 0.00 35 1014.1
20260901071104 67 92 0.9 1.7 0.00 0.00 0.00 33 1014.2
20260901070104 68 92 0.0 0.9 0.00 0.00 0.00 33 1014.2
20260901065612 68 92 0.0 0.9 0.00 0.00 0.00 32 1014.1
20260901065104 68 92 0.0 0.9 0.00 0.00 0.00 32 1014.1
20260901064604 68 92 0.0 0.9 0.00 0.00 0.00 32 1014.1
20260901064103 68 92 0.0 0.9 0.00 0.00 0.00 31 1014.1
20260901063604 68 92 0.0 0.9 0.00 0.00 0.00 31 1014.1
20260901063104 68 92 0.0 0.9 0.00 0.00 0.00 34 1014.1
20260901062604 69 92 0.0 0.0 0.00 0.00 0.00 33 1014.1
20260901062104 69 92 0.0 0.9 0.00 0.00 0.00 33 1014.1
20260901061604 69 92 0.0 0.9 0.00 0.00 0.00 32 1014.1
20260901061104 70 92 0.0 2.6 0.00 0.00 0.00 32 1014.0
20260901060604 70 92 0.0 2.6 0.00 0.00 0.00 32 1014.1
20260901060104 69 105 0.9 1.7 0.00 0.00 0.00 32 1014.0
20260901055609 70 105 0.0 0.9 0.00 0.00 0.00 34 1014.1
20260901055103 70 105 0.0 0.9 0.00 0.00 0.00 34 1014.1
20260901054604 70 105 0.0 0.9 0.00 0.00 0.00 34 1014.1
20260901054104 70 105 0.0 0.9 0.00 0.00 0.00 32 1014.1
20260901053604 70 105 0.0 0.0 0.00 0.00 0.00 32 1014.1
20260901053104 70 105 0.0 0.0 0.00 0.00 0.00 32 1014.1
20260901052605 70 105 0.0 0.0 0.00 0.00 0.00 32 1014.1
20260901052104 71 105 0.0 1.7 0.00 0.00 0.00 31 1014.1
20260901051604 71 105 0.0 2.6 0.00 0.00 0.00 31 1014.1
20260901051104 71 105 0.9 2.6 0.00 0.00 0.00 31 1014.1
20260901050604 71 107 0.0 0.9 0.00 0.00 0.00 32 1014.1
20260901050104 72 107 0.0 0.9 0.00 0.00 0.00 31 1014.0
20260901045610 72 107 0.0 0.9 0.00 0.00 0.00 32 1014.0
20260901044604 72 107 0.0 0.9 0.00 0.00 0.00 34 1014.0
20260901044104 72 108 0.0 2.6 0.00 0.00 0.00 35 1014.0
20260901043104 73 119 0.9 2.6 0.00 0.00 0.00 36 1014.0
20260901042604 73 120 0.0 0.0 0.00 0.00 0.00 35 1013.9
20260901042104 73 120 0.0 0.9 0.00 0.00 0.00 36 1013.8
20260901041604 73 120 0.0 1.7 0.00 0.00 0.00 35 1013.7
20260901041104 74 120 0.0 2.6 0.00 0.00 0.00 35 1013.6
20260901040104 74 130 0.9 2.6 0.00 0.00 0.00 33 1013.4
20260901035604 74 137 0.0 1.7 0.00 0.00 0.00 32 1013.4
20260901035104 74 137 0.0 0.9 0.00 0.00 0.00 33 1013.3
20260901034604 74 138 0.0 1.7 0.00 0.00 0.00 34 1013.3
20260901034104 75 137 0.9 1.7 0.00 0.00 0.00 34 1013.3
20260901033604 75 169 0.0 0.9 0.00 0.00 0.00 34 1013.3
20260901033104 75 169 0.0 0.9 0.00 0.00 0.00 33 1013.1
20260901032104 76 169 0.0 0.9 0.00 0.00 0.00 32 1013.0
20260901031604 76 169 0.0 1.7 0.00 0.00 0.00 32 1012.9
20260901031105 76 173 0.0 1.7 0.00 0.00 0.00 32 1012.8
20260901030603 76 174 0.0 0.9 0.00 0.00 0.00 31 1012.8
20260901030105 77 174 0.0 1.7 0.00 0.00 0.00 31 1012.8
20260901025608 77 174 0.0 1.7 0.00 0.00 0.00 31 1012.8
20260901024603 77 184 0.9 1.7 0.00 0.00 0.00 30 1012.7
20260901024103 78 82 0.0 1.7 0.00 0.00 0.00 31 1012.7
20260901023604 78 80 0.0 1.7 0.00 0.00 0.00 29 1012.6
20260901022603 79 181 0.0 1.7 0.00 0.00 0.00 28 1012.3
20260901022104 79 218 0.0 1.7 0.00 0.00 0.00 26 1012.3
20260901021604 80 236 0.0 1.7 0.00 0.00 0.00 24 1012.3
20260901021105 80 236 0.0 1.7 0.00 0.00 0.00 23 1012.3
20260901020105 81 235 0.9 2.6 0.00 0.00 0.00 22 1012.2
20260901015608 82 248 0.9 2.6 0.00 0.00 0.00 23 1012.2
20260901015103 82 270 1.7 2.6 0.00 0.00 0.00 22 1012.1
20260901014604 82 264 1.7 4.3 0.00 0.00 0.00 22 1012.0
20260901014104 83 241 1.7 4.3 0.00 0.00 0.00 22 1012.0
20260901013604 83 255 2.6 4.3 0.00 0.00 0.00 21 1012.1
20260901013104 83 250 1.7 6.1 0.00 0.00 0.00 21 1012.0
20260901012604 84 257 2.6 6.1 0.00 0.00 0.00 21 1012.0
20260901011604 85 259 1.7 5.2 0.00 0.00 0.00 21 1012.1
20260901011104 86 249 2.6 5.2 0.00 0.00 0.00 20 1012.0
20260901010604 86 238 1.7 5.2 0.00 0.00 0.00 21 1012.0
20260901010104 86 234 2.6 5.2 0.00 0.00 0.00 20 1012.0
20260901005609 86 264 2.6 5.2 0.00 0.00 0.00 19 1011.9
20260901004604 87 240 1.7 7.0 0.00 0.00 0.00 20 1011.8
20260901004103 87 244 1.7 7.0 0.00 0.00 0.00 21 1011.7
20260901003603 87 227 2.6 8.7 0.00 0.00 0.00 22 1011.7
20260901003104 87 242 3.5 8.7 0.00 0.00 0.00 23 1011.7
20260901002604 88 239 4.3 8.7 0.00 0.00 0.00 23 1011.6
20260901002104 88 249 2.6 7.8 0.00 0.00 0.00 24 1011.6
20260901001604 88 235 2.6 7.8 0.00 0.00 0.00 24 1011.6
20260901001104 89 254 3.5 7.8 0.00 0.00 0.00 23 1011.5
20260901000604 88 226 1.7 8.7 0.00 0.00 0.00 23 1011.5
20260901000104 89 260 4.3 8.7 0.00 0.00 0.00 23 1011.5
20260831235604 89 235 4.3 7.0 0.00 0.00 0.00 23 1011.5
20260831235104 90 266 4.3 7.0 0.00 0.00 0.00 22 1011.5
20260831234604 89 279 3.5 6.1 0.00 0.00 0.00 23 1011.5
20260831234105 89 239 2.6 7.0 0.00 0.00 0.00 24 1011.5
20260831233605 89 271 4.3 7.8 0.00 0.00 0.00 23 1011.5
20260831233104 90 266 4.3 7.8 0.00 0.00 0.00 24 1011.5
20260831232604 90 255 3.5 7.8 0.00 0.00 0.00 23 1011.5
20260831231603 90 256 3.5 10.4 0.00 0.00 0.00 24 1011.5
20260831231104 90 268 5.2 10.4 0.00 0.00 0.00 23 1011.5